METAR LSZS 150320Z AUTO 18008KT 3800 -SN VV017 M01/M05 Q0995=
Diese Daten sind ohne Gewähr und dürfen nicht für die Flugvorbereitung verwendet werden.
Information contained in this website shall not be used for flight operation purposes.